owner,sensor,date,latitude,longitude,vertical_datum,mass_concentration_of_oxygen_in_sea_water,qcFlag 
DISL,ioos:station:DISL:CATA:1,2009-04-01T00:00:00Z,30.3085,-88.1395,2.639,8.65,1111122 
DISL,ioos:station:DISL:CATA:1,2009-04-01T00:30:00Z,30.3085,-88.1395,2.608,8.69,1111122 
DISL,ioos:station:DISL:CATA:1,2009-04-01T01:00:00Z,30.3085,-88.1395,2.54,8.71,1111122 
DISL,ioos:station:DISL:CATA:1,2009-04-01T01:30:00Z,30.3085,-88.1395,2.483,8.72,1111122 
DISL,ioos:station:DISL:CATA:1,2009-04-01T02:00:00Z,30.3085,-88.1395,2.442,8.71,1111122 
DISL,ioos:station:DISL:CATA:1,2009-04-01T02:30:00Z,30.3085,-88.1395,2.404,8.69,1111122 
DISL,ioos:station:DISL:CATA:1,2009-04-01T03:00:00Z,30.3085,-88.1395,2.383,8.67,1111122 
DISL,ioos:station:DISL:CATA:1,2009-04-01T03:30:00Z,30.3085,-88.1395,2.356,8.65,1111122 
DISL,ioos:station:DISL:CATA:1,2009-04-01T04:00:00Z,30.3085,-88.1395,2.316,8.65,1111122 
DISL,ioos:station:DISL:CATA:1,2009-04-01T04:30:00Z,30.3085,-88.1395,2.32,8.65,1111122 
DISL,ioos:station:DISL:CATA:1,2009-04-01T05:00:00Z,30.3085,-88.1395,2.302,8.65,1111122 
DISL,ioos:station:DISL:CATA:1,2009-04-01T05:30:00Z,30.3085,-88.1395,2.272,8.65,1111122 
DISL,ioos:station:DISL:CATA:1,2009-04-01T06:00:00Z,30.3085,-88.1395,2.267,8.64,1111122 
DISL,ioos:station:DISL:CATA:1,2009-04-01T06:30:00Z,30.3085,-88.1395,2.248,8.62,1111122 
DISL,ioos:station:DISL:CATA:1,2009-04-01T07:00:00Z,30.3085,-88.1395,2.234,8.61,1111122 
DISL,ioos:station:DISL:CATA:1,2009-04-01T07:30:00Z,30.3085,-88.1395,2.208,8.61,1111122 
DISL,ioos:station:DISL:CATA:1,2009-04-01T08:00:00Z,30.3085,-88.1395,2.215,8.62,1111122 
DISL,ioos:station:DISL:CATA:1,2009-04-01T08:30:00Z,30.3085,-88.1395,2.211,8.61,1111122 
DISL,ioos:station:DISL:CATA:1,2009-04-01T09:00:00Z,30.3085,-88.1395,2.212,8.6,1111122 
DISL,ioos:station:DISL:CATA:1,2009-04-01T09:30:00Z,30.3085,-88.1395,2.229,8.58,1111122 
DISL,ioos:station:DISL:CATA:1,2009-04-01T10:00:00Z,30.3085,-88.1395,2.273,8.56,1111122 
DISL,ioos:station:DISL:CATA:1,2009-04-01T10:30:00Z,30.3085,-88.1395,2.288,8.54,1111122 
DISL,ioos:station:DISL:CATA:1,2009-04-01T11:00:00Z,30.3085,-88.1395,2.334,8.48,1111122 
DISL,ioos:station:DISL:CATA:1,2009-04-01T11:30:00Z,30.3085,-88.1395,2.36,8.56,1111122 
DISL,ioos:station:DISL:CATA:1,2009-04-01T12:00:00Z,30.3085,-88.1395,2.377,8.54,1111122 
DISL,ioos:station:DISL:CATA:1,2009-04-01T12:30:00Z,30.3085,-88.1395,2.348,8.56,1111122 
DISL,ioos:station:DISL:CATA:1,2009-04-01T13:00:00Z,30.3085,-88.1395,2.355,8.58,1111122 
DISL,ioos:station:DISL:CATA:1,2009-04-01T13:30:00Z,30.3085,-88.1395,2.363,8.63,1111122 
DISL,ioos:station:DISL:CATA:1,2009-04-01T14:00:00Z,30.3085,-88.1395,2.36,8.68,1111122 
DISL,ioos:station:DISL:CATA:1,2009-04-01T14:30:00Z,30.3085,-88.1395,2.347,8.71,1111122 
DISL,ioos:station:DISL:CATA:1,2009-04-01T15:00:00Z,30.3085,-88.1395,2.364,8.71,1111122 
DISL,ioos:station:DISL:CATA:1,2009-04-01T15:30:00Z,30.3085,-88.1395,2.386,8.71,1111122 
DISL,ioos:station:DISL:CATA:1,2009-04-01T16:00:00Z,30.3085,-88.1395,2.432,8.71,1111122 
DISL,ioos:station:DISL:CATA:1,2009-04-01T16:30:00Z,30.3085,-88.1395,2.521,8.73,1111122 
DISL,ioos:station:DISL:CATA:1,2009-04-01T17:00:00Z,30.3085,-88.1395,2.588,8.69,1111122 
DISL,ioos:station:DISL:CATA:1,2009-04-01T17:30:00Z,30.3085,-88.1395,2.625,8.76,1111122 
DISL,ioos:station:DISL:CATA:1,2009-04-01T18:00:00Z,30.3085,-88.1395,2.671,8.83,1111122 
DISL,ioos:station:DISL:CATA:1,2009-04-01T18:30:00Z,30.3085,-88.1395,2.698,8.86,1111122 
DISL,ioos:station:DISL:CATA:1,2009-04-01T19:00:00Z,30.3085,-88.1395,2.749,8.8,1111122 
DISL,ioos:station:DISL:CATA:1,2009-04-01T19:30:00Z,30.3085,-88.1395,2.769,8.88,1111122 
DISL,ioos:station:DISL:CATA:1,2009-04-01T20:00:00Z,30.3085,-88.1395,2.782,8.95,1111122 
DISL,ioos:station:DISL:CATA:1,2009-04-01T20:30:00Z,30.3085,-88.1395,2.808,9.13,1111122 
DISL,ioos:station:DISL:CATA:1,2009-04-01T21:00:00Z,30.3085,-88.1395,2.813,9.03,1111122 
DISL,ioos:station:DISL:CATA:1,2009-04-01T21:30:00Z,30.3085,-88.1395,2.819,8.8,1111122 
DISL,ioos:station:DISL:CATA:1,2009-04-01T22:00:00Z,30.3085,-88.1395,2.806,8.65,1111122 
DISL,ioos:station:DISL:CATA:1,2009-04-01T22:30:00Z,30.3085,-88.1395,2.835,8.56,1111122 
DISL,ioos:station:DISL:CATA:1,2009-04-01T23:00:00Z,30.3085,-88.1395,2.829,8.37,1111122 
DISL,ioos:station:DISL:CATA:1,2009-04-01T23:30:00Z,30.3085,-88.1395,2.776,8.52,1111122 
DISL,ioos:station:DISL:CATA:1,2009-04-02T00:00:00Z,30.3085,-88.1395,2.732,8.75,1111122 
DISL,ioos:station:DISL:CATA:1,2009-04-02T00:30:00Z,30.3085,-88.1395,2.711,8.77,1111122 
DISL,ioos:station:DISL:CATA:1,2009-04-02T01:00:00Z,30.3085,-88.1395,2.677,8.96,1111122 
DISL,ioos:station:DISL:CATA:1,2009-04-02T01:30:00Z,30.3085,-88.1395,2.625,8.92,1111122 
DISL,ioos:station:DISL:CATA:1,2009-04-02T02:00:00Z,30.3085,-88.1395,2.574,8.9,1111122 
DISL,ioos:station:DISL:CATA:1,2009-04-02T02:30:00Z,30.3085,-88.1395,2.527,8.83,1111122 
DISL,ioos:station:DISL:CATA:1,2009-04-02T03:00:00Z,30.3085,-88.1395,2.494,8.7,1111122 
DISL,ioos:station:DISL:CATA:1,2009-04-02T03:30:00Z,30.3085,-88.1395,2.437,8.64,1111122 
DISL,ioos:station:DISL:CATA:1,2009-04-02T04:00:00Z,30.3085,-88.1395,2.395,8.61,1111122 
DISL,ioos:station:DISL:CATA:1,2009-04-02T04:30:00Z,30.3085,-88.1395,2.357,8.58,1111122 
DISL,ioos:station:DISL:CATA:1,2009-04-02T05:00:00Z,30.3085,-88.1395,2.333,8.56,1111122 
DISL,ioos:station:DISL:CATA:1,2009-04-02T05:30:00Z,30.3085,-88.1395,2.315,8.55,1111122 
DISL,ioos:station:DISL:CATA:1,2009-04-02T06:00:00Z,30.3085,-88.1395,2.282,8.56,1111122 
DISL,ioos:station:DISL:CATA:1,2009-04-02T06:30:00Z,30.3085,-88.1395,2.284,8.58,1111122 
DISL,ioos:station:DISL:CATA:1,2009-04-02T07:00:00Z,30.3085,-88.1395,2.314,8.58,1111122 
DISL,ioos:station:DISL:CATA:1,2009-04-02T07:30:00Z,30.3085,-88.1395,2.349,8.55,1111122 
DISL,ioos:station:DISL:CATA:1,2009-04-02T08:00:00Z,30.3085,-88.1395,2.343,8.51,1111122 
DISL,ioos:station:DISL:CATA:1,2009-04-02T08:30:00Z,30.3085,-88.1395,2.313,8.49,1111122 
DISL,ioos:station:DISL:CATA:1,2009-04-02T09:00:00Z,30.3085,-88.1395,2.311,8.44,1111122 
DISL,ioos:station:DISL:CATA:1,2009-04-02T09:30:00Z,30.3085,-88.1395,2.326,8.43,1111122 
DISL,ioos:station:DISL:CATA:1,2009-04-02T10:00:00Z,30.3085,-88.1395,2.289,8.43,1111122 
DISL,ioos:station:DISL:CATA:1,2009-04-02T10:30:00Z,30.3085,-88.1395,2.286,8.43,1111122 
DISL,ioos:station:DISL:CATA:1,2009-04-02T11:00:00Z,30.3085,-88.1395,2.287,8.42,1111122 
DISL,ioos:station:DISL:CATA:1,2009-04-02T11:30:00Z,30.3085,-88.1395,2.289,8.41,1111122 
DISL,ioos:station:DISL:CATA:1,2009-04-02T12:00:00Z,30.3085,-88.1395,2.296,8.4,1111122 
DISL,ioos:station:DISL:CATA:1,2009-04-02T12:30:00Z,30.3085,-88.1395,2.334,8.39,1111122 
DISL,ioos:station:DISL:CATA:1,2009-04-02T13:00:00Z,30.3085,-88.1395,2.475,8.4,1111122 
DISL,ioos:station:DISL:CATA:1,2009-04-02T13:30:00Z,30.3085,-88.1395,2.508,8.43,1111122 
DISL,ioos:station:DISL:CATA:1,2009-04-02T14:00:00Z,30.3085,-88.1395,2.513,8.47,1111122 
DISL,ioos:station:DISL:CATA:1,2009-04-02T14:30:00Z,30.3085,-88.1395,2.559,8.47,1111122 
DISL,ioos:station:DISL:CATA:1,2009-04-02T15:00:00Z,30.3085,-88.1395,2.593,8.47,1111122 
DISL,ioos:station:DISL:CATA:1,2009-04-02T15:30:00Z,30.3085,-88.1395,2.547,8.49,1111122 
DISL,ioos:station:DISL:CATA:1,2009-04-02T16:00:00Z,30.3085,-88.1395,2.583,8.49,1111122 
DISL,ioos:station:DISL:CATA:1,2009-04-02T16:30:00Z,30.3085,-88.1395,2.636,8.48,1111122 
DISL,ioos:station:DISL:CATA:1,2009-04-02T17:00:00Z,30.3085,-88.1395,2.725,8.47,1111122 
DISL,ioos:station:DISL:CATA:1,2009-04-02T17:30:00Z,30.3085,-88.1395,2.742,8.47,1111122 
DISL,ioos:station:DISL:CATA:1,2009-04-02T18:00:00Z,30.3085,-88.1395,2.764,8.45,1111122 
DISL,ioos:station:DISL:CATA:1,2009-04-02T18:30:00Z,30.3085,-88.1395,2.803,8.42,1111122 
DISL,ioos:station:DISL:CATA:1,2009-04-02T19:00:00Z,30.3085,-88.1395,2.829,8.48,1111122 
DISL,ioos:station:DISL:CATA:1,2009-04-02T19:30:00Z,30.3085,-88.1395,2.892,8.48,1111122 
DISL,ioos:station:DISL:CATA:1,2009-04-02T20:00:00Z,30.3085,-88.1395,2.86,8.53,1111122 
DISL,ioos:station:DISL:CATA:1,2009-04-02T20:30:00Z,30.3085,-88.1395,2.893,8.51,1111122 
DISL,ioos:station:DISL:CATA:1,2009-04-02T21:00:00Z,30.3085,-88.1395,2.937,8.49,1111122 
DISL,ioos:station:DISL:CATA:1,2009-04-02T21:30:00Z,30.3085,-88.1395,2.989,8.51,1111122 
DISL,ioos:station:DISL:CATA:1,2009-04-02T22:00:00Z,30.3085,-88.1395,2.934,8.48,1111122 
DISL,ioos:station:DISL:CATA:1,2009-04-02T22:30:00Z,30.3085,-88.1395,2.937,8.54,1111122 
DISL,ioos:station:DISL:CATA:1,2009-04-02T23:00:00Z,30.3085,-88.1395,2.942,8.53,1111122 
DISL,ioos:station:DISL:CATA:1,2009-04-02T23:30:00Z,30.3085,-88.1395,2.87,8.54,1111122 
DISL,ioos:station:DISL:CATA:1,2009-04-03T00:00:00Z,30.3085,-88.1395,2.799,8.51,1111122 
DISL,ioos:station:DISL:CATA:1,2009-04-03T00:30:00Z,30.3085,-88.1395,2.763,8.46,1111122 
DISL,ioos:station:DISL:CATA:1,2009-04-03T01:00:00Z,30.3085,-88.1395,2.717,8.44,1111122 
DISL,ioos:station:DISL:CATA:1,2009-04-03T01:30:00Z,30.3085,-88.1395,2.685,8.45,1111122 
DISL,ioos:station:DISL:CATA:1,2009-04-03T02:00:00Z,30.3085,-88.1395,2.683,8.48,1111122 
DISL,ioos:station:DISL:CATA:1,2009-04-03T02:30:00Z,30.3085,-88.1395,2.652,8.44,1111122 
DISL,ioos:station:DISL:CATA:1,2009-04-03T03:00:00Z,30.3085,-88.1395,2.659,8.44,1111122 
DISL,ioos:station:DISL:CATA:1,2009-04-03T03:30:00Z,30.3085,-88.1395,2.632,8.43,1111122 
DISL,ioos:station:DISL:CATA:1,2009-04-03T04:00:00Z,30.3085,-88.1395,2.592,8.42,1111122 
DISL,ioos:station:DISL:CATA:1,2009-04-03T04:30:00Z,30.3085,-88.1395,2.545,8.42,1111122 
DISL,ioos:station:DISL:CATA:1,2009-04-03T05:00:00Z,30.3085,-88.1395,2.513,8.13,1111122 
DISL,ioos:station:DISL:CATA:1,2009-04-03T05:30:00Z,30.3085,-88.1395,2.455,7.92,1111122 
DISL,ioos:station:DISL:CATA:1,2009-04-03T06:00:00Z,30.3085,-88.1395,2.423,7.83,1111122 
DISL,ioos:station:DISL:CATA:1,2009-04-03T06:30:00Z,30.3085,-88.1395,2.409,7.73,1111122 
DISL,ioos:station:DISL:CATA:1,2009-04-03T07:00:00Z,30.3085,-88.1395,2.382,7.63,1111122 
DISL,ioos:station:DISL:CATA:1,2009-04-03T07:30:00Z,30.3085,-88.1395,2.347,7.58,1111122 
DISL,ioos:station:DISL:CATA:1,2009-04-03T08:00:00Z,30.3085,-88.1395,2.335,7.69,1111122 
DISL,ioos:station:DISL:CATA:1,2009-04-03T08:30:00Z,30.3085,-88.1395,2.317,7.85,1111122 
DISL,ioos:station:DISL:CATA:1,2009-04-03T09:00:00Z,30.3085,-88.1395,2.292,7.93,1111122 
DISL,ioos:station:DISL:CATA:1,2009-04-03T09:30:00Z,30.3085,-88.1395,2.264,7.99,1111122 
DISL,ioos:station:DISL:CATA:1,2009-04-03T10:00:00Z,30.3085,-88.1395,2.248,7.99,1111122 
DISL,ioos:station:DISL:CATA:1,2009-04-03T10:30:00Z,30.3085,-88.1395,2.246,8.02,1111122 
DISL,ioos:station:DISL:CATA:1,2009-04-03T11:00:00Z,30.3085,-88.1395,2.248,8.1,1111122 
DISL,ioos:station:DISL:CATA:1,2009-04-03T11:30:00Z,30.3085,-88.1395,2.235,8.15,1111122 
DISL,ioos:station:DISL:CATA:1,2009-04-03T12:00:00Z,30.3085,-88.1395,2.244,8.19,1111122 
DISL,ioos:station:DISL:CATA:1,2009-04-03T12:30:00Z,30.3085,-88.1395,2.291,8.22,1111122 
DISL,ioos:station:DISL:CATA:1,2009-04-03T13:00:00Z,30.3085,-88.1395,2.318,8.24,1111122 
DISL,ioos:station:DISL:CATA:1,2009-04-03T13:30:00Z,30.3085,-88.1395,2.35,8.32,1111122 
DISL,ioos:station:DISL:CATA:1,2009-04-03T14:00:00Z,30.3085,-88.1395,2.381,8.35,1111122 
DISL,ioos:station:DISL:CATA:1,2009-04-03T14:30:00Z,30.3085,-88.1395,2.409,8.33,1111122 
DISL,ioos:station:DISL:CATA:1,2009-04-03T15:00:00Z,30.3085,-88.1395,2.434,8.4,1111122 
DISL,ioos:station:DISL:CATA:1,2009-04-03T15:30:00Z,30.3085,-88.1395,2.462,8.42,1111122 
DISL,ioos:station:DISL:CATA:1,2009-04-03T16:00:00Z,30.3085,-88.1395,2.496,8.46,1111122 
DISL,ioos:station:DISL:CATA:1,2009-04-03T16:30:00Z,30.3085,-88.1395,2.531,8.54,1111122 
DISL,ioos:station:DISL:CATA:1,2009-04-03T17:00:00Z,30.3085,-88.1395,2.567,8.6,1111122 
DISL,ioos:station:DISL:CATA:1,2009-04-03T17:30:00Z,30.3085,-88.1395,2.592,8.63,1111122 
DISL,ioos:station:DISL:CATA:1,2009-04-03T18:00:00Z,30.3085,-88.1395,2.622,8.68,1111122 
DISL,ioos:station:DISL:CATA:1,2009-04-03T18:30:00Z,30.3085,-88.1395,2.637,8.68,1111122 
DISL,ioos:station:DISL:CATA:1,2009-04-03T19:00:00Z,30.3085,-88.1395,2.672,8.72,1111122 
DISL,ioos:station:DISL:CATA:1,2009-04-03T19:30:00Z,30.3085,-88.1395,2.704,8.77,1111122 
DISL,ioos:station:DISL:CATA:1,2009-04-03T20:00:00Z,30.3085,-88.1395,2.722,8.75,1111122 
DISL,ioos:station:DISL:CATA:1,2009-04-03T20:30:00Z,30.3085,-88.1395,2.734,8.54,1111122 
DISL,ioos:station:DISL:CATA:1,2009-04-03T21:00:00Z,30.3085,-88.1395,2.745,8.75,1111122 
DISL,ioos:station:DISL:CATA:1,2009-04-03T21:30:00Z,30.3085,-88.1395,2.747,8.78,1111122 
DISL,ioos:station:DISL:CATA:1,2009-04-03T22:00:00Z,30.3085,-88.1395,2.759,8.67,1111122 
DISL,ioos:station:DISL:CATA:1,2009-04-03T22:30:00Z,30.3085,-88.1395,2.772,8.62,1111122 
DISL,ioos:station:DISL:CATA:1,2009-04-03T23:00:00Z,30.3085,-88.1395,2.772,8.64,1111122 
DISL,ioos:station:DISL:CATA:1,2009-04-03T23:30:00Z,30.3085,-88.1395,2.761,8.65,1111122 
DISL,ioos:station:DISL:CATA:1,2009-04-04T00:00:00Z,30.3085,-88.1395,2.756,8.54,1111122 
DISL,ioos:station:DISL:CATA:1,2009-04-04T00:30:00Z,30.3085,-88.1395,2.742,8.48,1111122 
DISL,ioos:station:DISL:CATA:1,2009-04-04T01:00:00Z,30.3085,-88.1395,2.74,8.37,1111122 
DISL,ioos:station:DISL:CATA:1,2009-04-04T01:30:00Z,30.3085,-88.1395,2.73,8.18,1111122 
DISL,ioos:station:DISL:CATA:1,2009-04-04T02:00:00Z,30.3085,-88.1395,2.695,8.28,1111122 
DISL,ioos:station:DISL:CATA:1,2009-04-04T02:30:00Z,30.3085,-88.1395,2.679,8.02,1111122 
DISL,ioos:station:DISL:CATA:1,2009-04-04T03:00:00Z,30.3085,-88.1395,2.645,7.86,1111122 
DISL,ioos:station:DISL:CATA:1,2009-04-04T03:30:00Z,30.3085,-88.1395,2.612,8.06,1111122 
DISL,ioos:station:DISL:CATA:1,2009-04-04T04:00:00Z,30.3085,-88.1395,2.571,8.02,1111122 
DISL,ioos:station:DISL:CATA:1,2009-04-04T04:30:00Z,30.3085,-88.1395,2.527,7.98,1111122 
DISL,ioos:station:DISL:CATA:1,2009-04-04T05:00:00Z,30.3085,-88.1395,2.487,8.05,1111122 
DISL,ioos:station:DISL:CATA:1,2009-04-04T05:30:00Z,30.3085,-88.1395,2.444,8.07,1111122 
DISL,ioos:station:DISL:CATA:1,2009-04-04T06:00:00Z,30.3085,-88.1395,2.402,8.1,1111122 
DISL,ioos:station:DISL:CATA:1,2009-04-04T06:30:00Z,30.3085,-88.1395,2.372,8.21,1111122 
DISL,ioos:station:DISL:CATA:1,2009-04-04T07:00:00Z,30.3085,-88.1395,2.334,8.28,1111122 
DISL,ioos:station:DISL:CATA:1,2009-04-04T07:30:00Z,30.3085,-88.1395,2.305,8.26,1111122 
DISL,ioos:station:DISL:CATA:1,2009-04-04T08:00:00Z,30.3085,-88.1395,2.29,8.33,1111122 
DISL,ioos:station:DISL:CATA:1,2009-04-04T08:30:00Z,30.3085,-88.1395,2.28,8.42,1111122 
DISL,ioos:station:DISL:CATA:1,2009-04-04T09:00:00Z,30.3085,-88.1395,2.268,8.38,1111122 
DISL,ioos:station:DISL:CATA:1,2009-04-04T09:30:00Z,30.3085,-88.1395,2.246,8.35,1111122 
DISL,ioos:station:DISL:CATA:1,2009-04-04T10:00:00Z,30.3085,-88.1395,2.241,8.33,1111122 
DISL,ioos:station:DISL:CATA:1,2009-04-04T10:30:00Z,30.3085,-88.1395,2.236,8.23,1111122 
DISL,ioos:station:DISL:CATA:1,2009-04-04T11:00:00Z,30.3085,-88.1395,2.237,8.12,1111122 
DISL,ioos:station:DISL:CATA:1,2009-04-04T11:30:00Z,30.3085,-88.1395,2.249,8.07,1111122 
DISL,ioos:station:DISL:CATA:1,2009-04-04T12:00:00Z,30.3085,-88.1395,2.264,8.05,1111122 
DISL,ioos:station:DISL:CATA:1,2009-04-04T12:30:00Z,30.3085,-88.1395,2.292,8.06,1111122 
DISL,ioos:station:DISL:CATA:1,2009-04-04T13:00:00Z,30.3085,-88.1395,2.32,8.09,1111122 
DISL,ioos:station:DISL:CATA:1,2009-04-04T13:30:00Z,30.3085,-88.1395,2.35,8.09,1111122 
DISL,ioos:station:DISL:CATA:1,2009-04-04T14:00:00Z,30.3085,-88.1395,2.388,8.06,1111122 
DISL,ioos:station:DISL:CATA:1,2009-04-04T14:30:00Z,30.3085,-88.1395,2.425,8.02,1111122 
DISL,ioos:station:DISL:CATA:1,2009-04-04T15:00:00Z,30.3085,-88.1395,2.442,8.01,1111122 
DISL,ioos:station:DISL:CATA:1,2009-04-04T15:30:00Z,30.3085,-88.1395,2.472,7.99,1111122 
DISL,ioos:station:DISL:CATA:1,2009-04-04T16:00:00Z,30.3085,-88.1395,2.505,8.01,1111122 
DISL,ioos:station:DISL:CATA:1,2009-04-04T16:30:00Z,30.3085,-88.1395,2.525,8.03,1111122 
DISL,ioos:station:DISL:CATA:1,2009-04-04T17:00:00Z,30.3085,-88.1395,2.552,8.05,1111122 
DISL,ioos:station:DISL:CATA:1,2009-04-04T17:30:00Z,30.3085,-88.1395,2.569,7.99,1111122 
DISL,ioos:station:DISL:CATA:1,2009-04-04T18:00:00Z,30.3085,-88.1395,2.591,8.0,1111122 
DISL,ioos:station:DISL:CATA:1,2009-04-04T18:30:00Z,30.3085,-88.1395,2.6,8.05,1111122 
DISL,ioos:station:DISL:CATA:1,2009-04-04T19:00:00Z,30.3085,-88.1395,2.625,8.06,1111122 
DISL,ioos:station:DISL:CATA:1,2009-04-04T19:30:00Z,30.3085,-88.1395,2.631,8.08,1111122 
DISL,ioos:station:DISL:CATA:1,2009-04-04T20:00:00Z,30.3085,-88.1395,2.653,8.09,1111122 
DISL,ioos:station:DISL:CATA:1,2009-04-04T20:30:00Z,30.3085,-88.1395,2.669,8.09,1111122 
DISL,ioos:station:DISL:CATA:1,2009-04-04T21:00:00Z,30.3085,-88.1395,2.693,8.1,1111122 
DISL,ioos:station:DISL:CATA:1,2009-04-04T21:30:00Z,30.3085,-88.1395,2.71,8.09,1111122 
DISL,ioos:station:DISL:CATA:1,2009-04-04T22:00:00Z,30.3085,-88.1395,2.738,8.09,1111122 
DISL,ioos:station:DISL:CATA:1,2009-04-04T22:30:00Z,30.3085,-88.1395,2.745,8.08,1111122 
DISL,ioos:station:DISL:CATA:1,2009-04-04T23:00:00Z,30.3085,-88.1395,2.746,8.07,1111122 
DISL,ioos:station:DISL:CATA:1,2009-04-04T23:30:00Z,30.3085,-88.1395,2.744,8.07,1111122 
DISL,ioos:station:DISL:CATA:1,2009-04-05T00:00:00Z,30.3085,-88.1395,2.752,8.06,1111122 
DISL,ioos:station:DISL:CATA:1,2009-04-05T00:30:00Z,30.3085,-88.1395,2.749,8.06,1111122 
DISL,ioos:station:DISL:CATA:1,2009-04-05T01:00:00Z,30.3085,-88.1395,2.731,8.06,1111122 
DISL,ioos:station:DISL:CATA:1,2009-04-05T01:30:00Z,30.3085,-88.1395,2.719,8.06,1111122 
DISL,ioos:station:DISL:CATA:1,2009-04-05T02:00:00Z,30.3085,-88.1395,2.705,8.08,1111122 
DISL,ioos:station:DISL:CATA:1,2009-04-05T02:30:00Z,30.3085,-88.1395,2.689,8.1,1111122 
DISL,ioos:station:DISL:CATA:1,2009-04-05T03:00:00Z,30.3085,-88.1395,2.669,8.07,1111122 
DISL,ioos:station:DISL:CATA:1,2009-04-05T03:30:00Z,30.3085,-88.1395,2.656,8.09,1111122 
DISL,ioos:station:DISL:CATA:1,2009-04-05T04:00:00Z,30.3085,-88.1395,2.608,8.08,1111122 
DISL,ioos:station:DISL:CATA:1,2009-04-05T04:30:00Z,30.3085,-88.1395,2.578,8.06,1111122 
DISL,ioos:station:DISL:CATA:1,2009-04-05T05:00:00Z,30.3085,-88.1395,2.546,8.03,1111122 
DISL,ioos:station:DISL:CATA:1,2009-04-05T05:30:00Z,30.3085,-88.1395,2.514,8.07,1111122 
DISL,ioos:station:DISL:CATA:1,2009-04-05T06:00:00Z,30.3085,-88.1395,2.48,8.05,1111122 
DISL,ioos:station:DISL:CATA:1,2009-04-05T06:30:00Z,30.3085,-88.1395,2.445,8.04,1111122 
DISL,ioos:station:DISL:CATA:1,2009-04-05T07:00:00Z,30.3085,-88.1395,2.421,8.04,1111122 
DISL,ioos:station:DISL:CATA:1,2009-04-05T07:30:00Z,30.3085,-88.1395,2.408,8.03,1111122 
DISL,ioos:station:DISL:CATA:1,2009-04-05T08:00:00Z,30.3085,-88.1395,2.383,8.01,1111122 
DISL,ioos:station:DISL:CATA:1,2009-04-05T08:30:00Z,30.3085,-88.1395,2.372,8.02,1111122 
DISL,ioos:station:DISL:CATA:1,2009-04-05T09:00:00Z,30.3085,-88.1395,2.374,8.0,1111122 
DISL,ioos:station:DISL:CATA:1,2009-04-05T09:30:00Z,30.3085,-88.1395,2.365,8.0,1111122 
DISL,ioos:station:DISL:CATA:1,2009-04-05T10:00:00Z,30.3085,-88.1395,2.376,8.01,1111122 
DISL,ioos:station:DISL:CATA:1,2009-04-05T10:30:00Z,30.3085,-88.1395,2.383,8.01,1111122 
DISL,ioos:station:DISL:CATA:1,2009-04-05T11:00:00Z,30.3085,-88.1395,2.377,8.02,1111122 
DISL,ioos:station:DISL:CATA:1,2009-04-05T11:30:00Z,30.3085,-88.1395,2.377,8.01,1111122 
DISL,ioos:station:DISL:CATA:1,2009-04-05T12:00:00Z,30.3085,-88.1395,2.378,8.0,1111122 
DISL,ioos:station:DISL:CATA:1,2009-04-05T12:30:00Z,30.3085,-88.1395,2.387,8.01,1111122 
DISL,ioos:station:DISL:CATA:1,2009-04-05T13:00:00Z,30.3085,-88.1395,2.404,8.0,1111122 
DISL,ioos:station:DISL:CATA:1,2009-04-05T13:30:00Z,30.3085,-88.1395,2.423,7.97,1111122 
DISL,ioos:station:DISL:CATA:1,2009-04-05T14:00:00Z,30.3085,-88.1395,2.439,7.94,1111122 
DISL,ioos:station:DISL:CATA:1,2009-04-05T14:30:00Z,30.3085,-88.1395,2.463,7.94,1111122 
DISL,ioos:station:DISL:CATA:1,2009-04-05T15:00:00Z,30.3085,-88.1395,2.484,7.95,1111122 
DISL,ioos:station:DISL:CATA:1,2009-04-05T15:30:00Z,30.3085,-88.1395,2.501,7.9,1111122 
DISL,ioos:station:DISL:CATA:1,2009-04-05T16:00:00Z,30.3085,-88.1395,2.525,7.88,1111122 
DISL,ioos:station:DISL:CATA:1,2009-04-05T16:30:00Z,30.3085,-88.1395,2.538,7.89,1111122 
DISL,ioos:station:DISL:CATA:1,2009-04-05T17:00:00Z,30.3085,-88.1395,2.568,7.96,1111122 
DISL,ioos:station:DISL:CATA:1,2009-04-05T17:30:00Z,30.3085,-88.1395,2.59,7.97,1111122 
DISL,ioos:station:DISL:CATA:1,2009-04-05T18:00:00Z,30.3085,-88.1395,2.613,8.0,1111122 
DISL,ioos:station:DISL:CATA:1,2009-04-05T18:30:00Z,30.3085,-88.1395,2.617,8.02,1111122 
DISL,ioos:station:DISL:CATA:1,2009-04-05T19:00:00Z,30.3085,-88.1395,2.621,8.07,1111122 
DISL,ioos:station:DISL:CATA:1,2009-04-05T19:30:00Z,30.3085,-88.1395,2.622,8.08,1111122 
DISL,ioos:station:DISL:CATA:1,2009-04-05T20:00:00Z,30.3085,-88.1395,2.62,8.05,1111122 
DISL,ioos:station:DISL:CATA:1,2009-04-05T20:30:00Z,30.3085,-88.1395,2.643,8.02,1111122 
DISL,ioos:station:DISL:CATA:1,2009-04-05T21:00:00Z,30.3085,-88.1395,2.638,8.09,1111122 
DISL,ioos:station:DISL:CATA:1,2009-04-05T21:30:00Z,30.3085,-88.1395,2.643,8.12,1111122 
DISL,ioos:station:DISL:CATA:1,2009-04-05T22:00:00Z,30.3085,-88.1395,2.651,8.09,1111122 
DISL,ioos:station:DISL:CATA:1,2009-04-05T22:30:00Z,30.3085,-88.1395,2.66,8.06,1111122 
DISL,ioos:station:DISL:CATA:1,2009-04-05T23:00:00Z,30.3085,-88.1395,2.669,8.02,1111122 
DISL,ioos:station:DISL:CATA:1,2009-04-05T23:30:00Z,30.3085,-88.1395,2.691,8.07,1111122 
DISL,ioos:station:DISL:CATA:1,2009-04-06T00:00:00Z,30.3085,-88.1395,2.702,8.19,1111122 
DISL,ioos:station:DISL:CATA:1,2009-04-06T00:30:00Z,30.3085,-88.1395,2.691,8.22,1111122 
DISL,ioos:station:DISL:CATA:1,2009-04-06T01:00:00Z,30.3085,-88.1395,2.687,8.22,1111122 
DISL,ioos:station:DISL:CATA:1,2009-04-06T01:30:00Z,30.3085,-88.1395,2.691,8.2,1111122 
DISL,ioos:station:DISL:CATA:1,2009-04-06T02:00:00Z,30.3085,-88.1395,2.695,8.18,1111122 
DISL,ioos:station:DISL:CATA:1,2009-04-06T02:30:00Z,30.3085,-88.1395,2.7,8.11,1111122 
DISL,ioos:station:DISL:CATA:1,2009-04-06T03:00:00Z,30.3085,-88.1395,2.692,8.11,1111122 
DISL,ioos:station:DISL:CATA:1,2009-04-06T03:30:00Z,30.3085,-88.1395,2.671,8.12,1111122 
DISL,ioos:station:DISL:CATA:1,2009-04-06T04:00:00Z,30.3085,-88.1395,2.647,8.03,1111122 
DISL,ioos:station:DISL:CATA:1,2009-04-06T04:30:00Z,30.3085,-88.1395,2.628,7.99,1111122 
DISL,ioos:station:DISL:CATA:1,2009-04-06T05:00:00Z,30.3085,-88.1395,2.602,7.97,1111122 
DISL,ioos:station:DISL:CATA:1,2009-04-06T05:30:00Z,30.3085,-88.1395,2.572,7.99,1111122 
DISL,ioos:station:DISL:CATA:1,2009-04-06T06:00:00Z,30.3085,-88.1395,2.558,8.05,1111122 
DISL,ioos:station:DISL:CATA:1,2009-04-06T06:30:00Z,30.3085,-88.1395,2.564,8.12,1111122 
DISL,ioos:station:DISL:CATA:1,2009-04-06T07:00:00Z,30.3085,-88.1395,2.545,8.13,1111122 
DISL,ioos:station:DISL:CATA:1,2009-04-06T07:30:00Z,30.3085,-88.1395,2.514,8.17,1111122 
DISL,ioos:station:DISL:CATA:1,2009-04-06T08:00:00Z,30.3085,-88.1395,2.497,8.16,1111122 
DISL,ioos:station:DISL:CATA:1,2009-04-06T08:30:00Z,30.3085,-88.1395,2.451,8.18,1111122 
DISL,ioos:station:DISL:CATA:1,2009-04-06T09:00:00Z,30.3085,-88.1395,2.417,8.22,1111122 
DISL,ioos:station:DISL:CATA:1,2009-04-06T09:30:00Z,30.3085,-88.1395,2.363,8.25,1111122 
DISL,ioos:station:DISL:CATA:1,2009-04-06T10:00:00Z,30.3085,-88.1395,2.322,8.32,1111122 
DISL,ioos:station:DISL:CATA:1,2009-04-06T10:30:00Z,30.3085,-88.1395,2.306,8.34,1111122 
DISL,ioos:station:DISL:CATA:1,2009-04-06T11:00:00Z,30.3085,-88.1395,2.272,8.35,1111122 
DISL,ioos:station:DISL:CATA:1,2009-04-06T11:30:00Z,30.3085,-88.1395,2.233,8.37,1111122 
DISL,ioos:station:DISL:CATA:1,2009-04-06T12:00:00Z,30.3085,-88.1395,2.276,8.41,1111122 
DISL,ioos:station:DISL:CATA:1,2009-04-06T12:30:00Z,30.3085,-88.1395,2.285,8.42,1111122 
DISL,ioos:station:DISL:CATA:1,2009-04-06T13:00:00Z,30.3085,-88.1395,2.289,8.45,1111122 
DISL,ioos:station:DISL:CATA:1,2009-04-06T13:30:00Z,30.3085,-88.1395,2.274,8.49,1111122 
DISL,ioos:station:DISL:CATA:1,2009-04-06T14:00:00Z,30.3085,-88.1395,2.285,8.52,1111122 
DISL,ioos:station:DISL:CATA:1,2009-04-06T14:30:00Z,30.3085,-88.1395,2.3,8.55,1111122 
DISL,ioos:station:DISL:CATA:1,2009-04-06T15:00:00Z,30.3085,-88.1395,2.306,8.55,1111122 
DISL,ioos:station:DISL:CATA:1,2009-04-06T15:30:00Z,30.3085,-88.1395,2.308,8.57,1111122 